Date,TemperatureHighF,TemperatureAvgF,TemperatureLowF,DewpointHighF,DewpointAvgF,DewpointLowF,HumidityHigh,HumidityAvg,HumidityLow,PressureMaxIn,PressureMinIn,WindSpeedMaxMPH,WindSpeedAvgMPH,GustSpeedMaxMPH,PrecipitationSumIn
2013-3-1,33,30,25,33,25,18,98,81,68,29.79,29.61,10,5,0,0.00
2013-3-2,28,24,22,27,15,-1,98,69,32,29.78,29.72,10,5,0,0.00
2013-3-3,30,24,20,28,13,0,98,64,37,29.81,29.72,12,6,0,0.00
2013-3-4,33,25,18,29,18,-2,98,76,39,29.93,29.81,14,6,0,0.00
2013-3-5,47,31,9,34,18,-2,98,65,14,29.97,29.61,11,2,0,0.05
2013-3-6,41,36,31,38,34,29,98,93,81,29.95,29.59,10,2,0,0.27
2013-3-7,39,35,26,38,34,2,98,96,34,30.10,29.95,10,3,0,0.12
2013-3-8,43,35,26,38,32,21,98,91,68,30.25,30.10,14,6,0,0.00
2013-3-9,58,36,18,39,26,12,98,72,39,30.29,30.13,5,0,0,0.00
2013-3-10,62,44,27,44,33,24,98,70,39,30.15,29.98,11,2,0,0.00
2013-3-11,56,48,40,52,42,36,98,81,51,29.99,29.67,12,3,0,0.02
2013-3-12,52,40,35,51,40,34,98,98,98,29.85,29.65,15,4,0,0.47
2013-3-13,39,31,24,34,30,24,98,97,71,29.92,29.77,13,5,0,0.09
2013-3-14,36,28,23,27,24,22,98,86,59,30.01,29.92,18,9,0,0.00
2013-3-15,46,37,21,44,34,21,98,89,69,29.97,29.68,13,5,0,0.00
2013-3-16,37,35,33,37,34,31,98,97,89,29.80,29.53,7,1,0,0.15
2013-3-17,37,31,27,33,29,26,98,92,76,30.08,29.80,11,1,0,0.00
2013-3-18,32,29,26,30,25,18,98,86,61,30.09,29.67,11,2,0,0.00
2013-3-19,46,36,28,38,29,22,98,77,47,29.81,29.60,17,2,0,0.42
2013-3-20,38,31,26,32,25,21,98,79,55,29.83,29.67,8,0,0,0.00
2013-3-21,26,23,16,24,19,13,98,85,59,29.73,29.67,11,0,0,0.00
2013-3-22,31,27,22,30,25,15,98,93,71,29.87,29.70,2,0,0,0.00
2013-3-23,45,33,25,32,28,25,98,86,58,29.89,29.84,3,0,0,0.00
2013-3-24,41,31,20,34,27,17,98,86,69,29.88,29.45,1,0,0,0.01
2013-3-25,41,33,30,41,31,21,98,90,71,29.58,29.35,0,0,0,0.24
2013-3-26,43,34,28,43,33,28,98,95,86,29.90,29.59,12,1,0,0.29
2013-3-27,41,34,31,37,32,26,98,89,74,30.00,29.90,10,1,0,0.15
2013-3-28,38,35,32,38,34,30,98,96,88,30.12,29.97,12,1,0,0.09
2013-3-29,50,40,32,45,36,31,98,86,56,30.14,30.03,7,0,0,0.00
2013-3-30,54,38,23,36,28,7,98,73,33,30.13,29.97,4,0,0,0.00
2013-3-31,46,37,29,46,37,29,98,98,98,29.97,29.60,5,0,0,0.31